Time,TemperatureF,DewpointF,PressureIn,WindDirection,WindDirectionDegrees,WindSpeedMPH,WindSpeedGustMPH,Humidity,HourlyPrecipIn,Conditions,Clouds,dailyrainin,SolarRadiationWatts/m^2,SoftwareType,DateUTC
2013-07-04 00:00:00,74.5,70.7,30.17,NW,306,0.0,0.0,88,0.00,SCT,OVC,0.00,0.0,WeatherDisplay:10.37,2013-07-04 04:00:00,
2013-07-04 00:01:00,74.5,70.7,30.17,West,273,4.6,4.6,88,0.00,CLR,OVC,0.00,0.0,WeatherDisplay:10.37,2013-07-04 04:01:00,
2013-07-04 00:02:00,74.5,70.7,30.17,East,91,2.3,0.0,88,0.00,CLR,OVC,0.00,0.0,WeatherDisplay:10.37,2013-07-04 04:02:00,
2013-07-04 00:07:00,74.5,70.7,30.17,WNW,302,0.0,0.0,88,0.00,CLR,OVC,0.00,0.0,WeatherDisplay:10.37,2013-07-04 04:07:00,
2013-07-04 00:12:00,74.5,70.7,30.17,West,278,0.0,0.0,88,0.00,CLR,OVC,0.00,0.0,WeatherDisplay:10.37,2013-07-04 04:12:00,
2013-07-04 00:17:00,74.5,70.7,30.17,SSW,201,0.0,0.0,88,0.00,CLR,OVC,0.00,0.0,WeatherDisplay:10.37,2013-07-04 04:17:00,
2013-07-04 00:22:00,74.5,70.7,30.17,NW,320,3.5,3.5,88,0.00,CLR,OVC,0.00,0.0,WeatherDisplay:10.37,2013-07-04 04:22:00,
2013-07-04 00:27:00,74.3,70.5,30.17,WSW,250,0.0,0.0,88,0.00,CLR,OVC,0.00,0.0,WeatherDisplay:10.37,2013-07-04 04:27:00,
2013-07-04 00:32:00,74.3,70.5,30.17,WNW,299,2.3,2.7,88,0.00,CLR,OVC,0.00,0.0,WeatherDisplay:10.37,2013-07-04 04:32:00,
2013-07-04 00:37:00,74.3,70.8,30.17,South,183,3.5,3.5,89,0.00,CLR,OVC,0.00,0.0,WeatherDisplay:10.37,2013-07-04 04:37:00,
2013-07-04 00:42:00,74.3,70.8,30.17,South,180,2.3,0.0,89,0.00,CLR,OVC,0.00,0.0,WeatherDisplay:10.37,2013-07-04 04:42:00,
2013-07-04 00:47:00,74.1,70.7,30.17,South,177,3.5,0.0,89,0.00,CLR,OVC,0.00,0.0,WeatherDisplay:10.37,2013-07-04 04:47:00,
2013-07-04 00:52:00,74.1,70.7,30.17,SSW,210,0.0,0.0,89,0.00,CLR,OVC,0.00,0.0,WeatherDisplay:10.37,2013-07-04 04:52:00,
2013-07-04 00:57:00,74.1,70.7,30.17,South,180,0.0,0.0,89,0.00,CLR,OVC,0.00,0.0,WeatherDisplay:10.37,2013-07-04 04:57:00,
2013-07-04 01:02:00,73.9,70.5,30.17,SW,218,0.0,0.0,89,0.00,BKN,OVC,0.00,0.0,WeatherDisplay:10.37,2013-07-04 05:02:00,
2013-07-04 01:07:00,73.9,70.5,30.17,WSW,252,0.0,0.0,89,0.00,BKN,OVC,0.00,0.0,WeatherDisplay:10.37,2013-07-04 05:07:00,
2013-07-04 01:12:00,73.9,70.5,30.17,NW,323,0.0,0.0,89,0.00,BKN,OVC,0.00,0.0,WeatherDisplay:10.37,2013-07-04 05:12:00,
2013-07-04 01:17:00,73.8,70.3,30.17,NW,324,0.0,0.0,89,0.00,BKN,OVC,0.00,0.0,WeatherDisplay:10.37,2013-07-04 05:17:00,
2013-07-04 01:22:00,73.8,70.3,30.17,West,270,0.0,0.0,89,0.00,BKN,OVC,0.00,0.0,WeatherDisplay:10.37,2013-07-04 05:22:00,
2013-07-04 01:27:00,73.6,70.1,30.17,West,280,0.0,0.0,89,0.00,BKN,OVC,0.00,0.0,WeatherDisplay:10.37,2013-07-04 05:27:00,
2013-07-04 01:32:00,73.6,70.5,30.17,SSW,203,0.0,0.0,90,0.00,BKN,OVC,0.00,0.0,WeatherDisplay:10.37,2013-07-04 05:32:00,
2013-07-04 01:37:00,73.6,70.5,30.17,SW,231,0.0,0.0,90,0.00,BKN,OVC,0.00,0.0,WeatherDisplay:10.37,2013-07-04 05:37:00,
2013-07-04 01:42:00,73.6,70.5,30.17,WSW,250,0.0,0.0,90,0.00,BKN,OVC,0.00,0.0,WeatherDisplay:10.37,2013-07-04 05:42:00,
2013-07-04 01:47:00,73.4,70.3,30.17,SW,226,0.0,0.0,90,0.00,BKN,OVC,0.00,0.0,WeatherDisplay:10.37,2013-07-04 05:47:00,
2013-07-04 01:52:00,73.4,70.3,30.17,SW,232,0.0,0.0,90,0.00,BKN,OVC,0.00,0.0,WeatherDisplay:10.37,2013-07-04 05:52:00,
2013-07-04 01:57:00,73.4,70.6,30.17,SW,232,0.0,0.0,91,0.00,BKN,OVC,0.00,0.0,WeatherDisplay:10.37,2013-07-04 05:57:00,
2013-07-04 02:02:00,73.2,70.4,30.17,SW,232,0.0,0.0,91,0.00,OVC,,0.00,0.0,WeatherDisplay:10.37,2013-07-04 06:02:00,
2013-07-04 02:07:00,73.2,70.4,30.17,SSW,209,0.0,0.0,91,0.00,OVC,,0.00,0.0,WeatherDisplay:10.37,2013-07-04 06:07:00,
2013-07-04 02:12:00,73.0,70.3,30.17,SSW,213,0.0,0.0,91,0.00,OVC,,0.00,0.0,WeatherDisplay:10.37,2013-07-04 06:12:00,
2013-07-04 02:17:00,73.0,70.3,30.17,SSW,201,0.0,0.0,91,0.00,OVC,,0.00,0.0,WeatherDisplay:10.37,2013-07-04 06:17:00,
2013-07-04 02:22:00,73.0,70.3,30.17,SSW,192,0.0,0.0,91,0.00,OVC,,0.00,0.0,WeatherDisplay:10.37,2013-07-04 06:22:00,
2013-07-04 02:27:00,73.0,70.3,30.17,SSE,166,0.0,0.0,91,0.00,OVC,,0.00,0.0,WeatherDisplay:10.37,2013-07-04 06:27:00,
2013-07-04 02:32:00,73.2,70.4,30.17,SSE,166,0.0,0.0,91,0.00,OVC,,0.00,0.0,WeatherDisplay:10.37,2013-07-04 06:32:00,
2013-07-04 02:37:00,73.2,70.8,30.17,SSE,166,0.0,0.0,92,0.00,OVC,,0.00,0.0,WeatherDisplay:10.37,2013-07-04 06:37:00,
2013-07-04 02:42:00,73.2,70.8,30.17,SSE,166,0.0,0.0,92,0.00,OVC,,0.00,0.0,WeatherDisplay:10.37,2013-07-04 06:42:00,
2013-07-04 02:47:00,73.2,70.8,30.17,SSE,166,0.0,0.0,92,0.00,OVC,,0.00,0.0,WeatherDisplay:10.37,2013-07-04 06:47:00,
2013-07-04 02:52:00,73.2,70.8,30.17,SSE,166,0.0,0.0,92,0.00,OVC,,0.00,0.0,WeatherDisplay:10.37,2013-07-04 06:52:00,
2013-07-04 02:57:00,73.2,71.1,30.17,SSE,166,0.0,0.0,93,0.00,OVC,,0.00,0.0,WeatherDisplay:10.37,2013-07-04 06:57:00,
2013-07-04 03:02:00,73.2,71.1,30.17,SSE,166,0.0,0.0,93,0.00,OVC,,0.00,0.0,WeatherDisplay:10.37,2013-07-04 07:02:00,
2013-07-04 03:07:00,73.2,71.1,30.17,SSE,166,0.0,0.0,93,0.00,OVC,,0.00,0.0,WeatherDisplay:10.37,2013-07-04 07:07:00,
2013-07-04 03:12:00,73.2,71.1,30.17,South,187,0.0,0.0,93,0.00,OVC,,0.00,0.0,WeatherDisplay:10.37,2013-07-04 07:12:00,
2013-07-04 03:17:00,73.2,71.1,30.17,West,266,0.0,0.0,93,0.00,OVC,,0.00,0.0,WeatherDisplay:10.37,2013-07-04 07:17:00,
2013-07-04 03:22:00,73.2,71.1,30.17,NNW,331,0.0,0.0,93,0.00,OVC,,0.00,0.0,WeatherDisplay:10.37,2013-07-04 07:22:00,
2013-07-04 03:27:00,73.2,71.1,30.17,NW,325,0.0,0.0,93,0.00,OVC,,0.00,0.0,WeatherDisplay:10.37,2013-07-04 07:27:00,
2013-07-04 03:32:00,73.2,71.1,30.17,NW,325,0.0,0.0,93,0.00,OVC,,0.00,0.0,WeatherDisplay:10.37,2013-07-04 07:32:00,
2013-07-04 03:37:00,73.2,71.1,30.17,WSW,244,3.5,0.0,93,0.00,OVC,,0.00,0.0,WeatherDisplay:10.37,2013-07-04 07:37:00,
2013-07-04 03:42:00,73.2,71.4,30.17,SW,218,3.5,3.5,94,0.00,OVC,,0.00,0.0,WeatherDisplay:10.37,2013-07-04 07:42:00,
2013-07-04 03:47:00,73.4,71.3,30.17,NNW,342,0.0,0.0,93,0.00,OVC,,0.00,0.0,WeatherDisplay:10.37,2013-07-04 07:47:00,
2013-07-04 03:52:00,73.4,71.6,30.17,SSE,150,4.6,0.0,94,0.00,OVC,,0.00,0.0,WeatherDisplay:10.37,2013-07-04 07:52:00,
2013-07-04 03:57:00,73.4,71.6,30.17,NNW,342,0.0,0.0,94,0.00,OVC,,0.00,0.0,WeatherDisplay:10.37,2013-07-04 07:57:00,
2013-07-04 04:02:00,73.4,71.6,30.17,South,177,0.0,0.0,94,0.00,OVC,,0.00,0.0,WeatherDisplay:10.37,2013-07-04 08:02:00,
2013-07-04 04:07:00,73.6,71.7,30.17,SW,233,0.0,0.0,94,0.00,OVC,,0.00,0.0,WeatherDisplay:10.37,2013-07-04 08:07:00,
2013-07-04 04:12:00,73.6,71.7,30.17,NNW,334,0.0,0.0,94,0.00,OVC,,0.00,0.0,WeatherDisplay:10.37,2013-07-04 08:12:00,
2013-07-04 04:17:00,73.6,71.7,30.17,WNW,293,2.3,0.0,94,0.00,OVC,,0.00,0.0,WeatherDisplay:10.37,2013-07-04 08:17:00,
2013-07-04 04:22:00,73.6,71.7,30.17,ENE,58,0.0,0.0,94,0.00,OVC,,0.00,0.0,WeatherDisplay:10.37,2013-07-04 08:22:00,
2013-07-04 04:27:00,73.6,71.7,30.17,West,272,0.0,0.0,94,0.00,OVC,,0.00,0.0,WeatherDisplay:10.37,2013-07-04 08:27:00,
2013-07-04 04:32:00,73.6,71.7,30.17,North,11,0.0,0.0,94,0.00,OVC,,0.00,0.0,WeatherDisplay:10.37,2013-07-04 08:32:00,
2013-07-04 04:37:00,73.6,71.7,30.17,SW,219,0.0,0.0,94,0.00,OVC,,0.00,0.0,WeatherDisplay:10.37,2013-07-04 08:37:00,
2013-07-04 04:42:00,73.6,71.7,30.17,East,93,0.0,0.0,94,0.00,OVC,,0.00,0.0,WeatherDisplay:10.37,2013-07-04 08:42:00,
2013-07-04 04:47:00,73.6,71.7,30.17,East,93,0.0,0.0,94,0.00,OVC,,0.00,0.0,WeatherDisplay:10.37,2013-07-04 08:47:00,
2013-07-04 04:52:00,73.6,71.7,30.17,SSW,200,0.0,0.0,94,0.00,OVC,,0.00,0.0,WeatherDisplay:10.37,2013-07-04 08:52:00,
2013-07-04 04:57:00,73.6,71.7,30.17,NNW,333,0.0,0.0,94,0.00,OVC,,0.00,0.0,WeatherDisplay:10.37,2013-07-04 08:57:00,
2013-07-04 05:02:00,73.6,71.7,30.17,SE,130,0.0,0.0,94,0.00,OVC,,0.00,0.0,WeatherDisplay:10.37,2013-07-04 09:02:00,
2013-07-04 05:07:00,73.6,71.7,30.17,NNW,346,0.0,0.0,94,0.00,OVC,,0.00,0.0,WeatherDisplay:10.37,2013-07-04 09:07:00,
2013-07-04 05:12:00,73.6,72.1,30.17,SW,229,3.5,3.5,95,0.00,OVC,,0.00,0.0,WeatherDisplay:10.37,2013-07-04 09:12:00,
2013-07-04 05:17:00,73.4,71.9,30.17,SW,228,0.0,0.0,95,0.00,OVC,,0.00,0.0,WeatherDisplay:10.37,2013-07-04 09:17:00,
2013-07-04 05:22:00,73.4,71.9,30.17,ENE,61,0.0,0.0,95,0.00,OVC,,0.00,0.0,WeatherDisplay:10.37,2013-07-04 09:22:00,
2013-07-04 05:27:00,73.4,71.9,30.17,SSW,207,0.0,0.0,95,0.00,OVC,,0.00,0.0,WeatherDisplay:10.37,2013-07-04 09:27:00,
2013-07-04 05:32:00,73.4,71.9,30.17,West,272,0.0,0.0,95,0.00,OVC,,0.00,0.0,WeatherDisplay:10.37,2013-07-04 09:32:00,
2013-07-04 05:37:00,73.4,71.9,30.17,South,173,0.0,0.0,95,0.00,OVC,,0.00,0.0,WeatherDisplay:10.37,2013-07-04 09:37:00,
2013-07-04 05:42:00,73.4,71.9,30.17,NW,308,0.0,0.0,95,0.00,OVC,,0.00,0.0,WeatherDisplay:10.37,2013-07-04 09:42:00,
2013-07-04 05:47:00,73.4,71.9,30.17,South,180,0.0,0.0,95,0.00,OVC,,0.00,0.0,WeatherDisplay:10.37,2013-07-04 09:47:00,
2013-07-04 05:52:00,73.4,71.9,30.17,SW,236,0.0,0.0,95,0.00,OVC,,0.00,0.0,WeatherDisplay:10.37,2013-07-04 09:52:00,
2013-07-04 05:57:00,73.4,71.9,30.17,WSW,250,8.1,8.1,95,0.00,OVC,,0.00,0.0,WeatherDisplay:10.37,2013-07-04 09:57:00,
2013-07-04 06:02:00,73.4,72.2,30.17,NW,305,0.0,0.0,96,0.00,BKN,OVC,0.00,0.0,WeatherDisplay:10.37,2013-07-04 10:02:00,
2013-07-04 06:07:00,73.4,72.2,30.17,NW,322,0.0,0.0,96,0.00,BKN,OVC,0.00,0.0,WeatherDisplay:10.37,2013-07-04 10:07:00,
2013-07-04 06:12:00,73.4,72.2,30.17,East,101,0.0,0.0,96,0.00,BKN,OVC,0.00,0.0,WeatherDisplay:10.37,2013-07-04 10:12:00,
2013-07-04 06:17:00,73.4,72.2,30.17,East,101,0.0,0.0,96,0.00,OVC,,0.00,0.0,WeatherDisplay:10.37,2013-07-04 10:17:00,
2013-07-04 06:22:00,73.4,72.2,30.17,East,101,0.0,0.0,96,0.00,OVC,,0.00,0.0,WeatherDisplay:10.37,2013-07-04 10:22:00,
2013-07-04 06:27:00,73.4,72.2,30.17,NNW,329,0.0,0.0,96,0.00,OVC,,0.00,0.0,WeatherDisplay:10.37,2013-07-04 10:27:00,
2013-07-04 06:32:00,73.4,72.2,30.17,NNW,330,0.0,0.0,96,0.00,OVC,,0.00,0.0,WeatherDisplay:10.37,2013-07-04 10:32:00,
2013-07-04 06:37:00,73.6,72.4,30.17,North,1,0.0,0.0,96,0.00,OVC,,0.00,0.0,WeatherDisplay:10.37,2013-07-04 10:37:00,
2013-07-04 06:42:00,73.6,72.4,30.17,NW,326,0.0,0.0,96,0.00,OVC,,0.00,0.0,WeatherDisplay:10.37,2013-07-04 10:42:00,
2013-07-04 06:47:00,73.6,72.4,30.17,NW,304,0.0,0.0,96,0.00,SCT,OVC,0.00,0.0,WeatherDisplay:10.37,2013-07-04 10:47:00,
2013-07-04 06:52:00,73.8,72.5,30.17,ENE,58,0.0,0.0,96,0.00,SCT,OVC,0.00,0.0,WeatherDisplay:10.37,2013-07-04 10:52:00,
2013-07-04 06:57:00,73.8,72.5,30.17,NW,304,0.0,0.0,96,0.00,SCT,OVC,0.00,0.0,WeatherDisplay:10.37,2013-07-04 10:57:00,
2013-07-04 07:02:00,73.9,72.7,30.17,North,359,0.0,0.0,96,0.00,SCT,OVC,0.00,0.0,WeatherDisplay:10.37,2013-07-04 11:02:00,
2013-07-04 07:07:00,74.1,72.9,30.17,NW,320,3.5,3.5,96,0.00,SCT,OVC,0.00,0.0,WeatherDisplay:10.37,2013-07-04 11:07:00,
2013-07-04 07:12:00,74.3,73.1,30.20,SW,228,0.0,0.0,96,0.00,SCT,OVC,0.00,0.0,WeatherDisplay:10.37,2013-07-04 11:12:00,
2013-07-04 07:17:00,74.7,73.8,30.20,West,279,0.0,0.0,97,0.00,SCT,OVC,0.00,0.0,WeatherDisplay:10.37,2013-07-04 11:17:00,
2013-07-04 07:22:00,74.8,73.9,30.20,NNW,328,3.5,0.0,97,0.00,SCT,OVC,0.00,0.0,WeatherDisplay:10.37,2013-07-04 11:22:00,
2013-07-04 07:27:00,75.0,74.1,30.17,SSW,202,5.8,5.8,97,0.00,SCT,OVC,0.00,0.0,WeatherDisplay:10.37,2013-07-04 11:27:00,
2013-07-04 07:32:00,75.4,74.2,30.17,WNW,290,5.8,5.8,96,0.00,SCT,OVC,0.00,0.0,WeatherDisplay:10.37,2013-07-04 11:32:00,
2013-07-04 07:37:00,75.6,74.3,30.17,WNW,289,4.6,0.0,96,0.00,SCT,OVC,0.00,0.0,WeatherDisplay:10.37,2013-07-04 11:37:00,
2013-07-04 07:42:00,75.9,74.7,30.20,West,260,3.5,3.5,96,0.00,SCT,OVC,0.00,0.0,WeatherDisplay:10.37,2013-07-04 11:42:00,
2013-07-04 07:47:00,76.3,75.1,30.20,WSW,255,5.8,0.0,96,0.00,SCT,OVC,0.00,0.0,WeatherDisplay:10.37,2013-07-04 11:47:00,
2013-07-04 07:52:00,76.5,75.2,30.20,South,188,0.0,0.0,96,0.00,SCT,OVC,0.00,0.0,WeatherDisplay:10.37,2013-07-04 11:52:00,
2013-07-04 07:57:00,76.8,75.6,30.20,NNW,336,8.1,8.1,96,0.00,SCT,OVC,0.00,0.0,WeatherDisplay:10.37,2013-07-04 11:57:00,
2013-07-04 08:02:00,77.0,75.8,30.20,North,352,5.8,0.0,96,0.00,SCT,OVC,0.00,0.0,WeatherDisplay:10.37,2013-07-04 12:02:00,
2013-07-04 08:07:00,77.2,75.6,30.20,SW,214,5.8,5.8,95,0.00,SCT,OVC,0.00,0.0,WeatherDisplay:10.37,2013-07-04 12:07:00,
2013-07-04 08:12:00,77.4,75.8,30.20,SW,232,4.6,4.6,95,0.00,SCT,OVC,0.00,0.0,WeatherDisplay:10.37,2013-07-04 12:12:00,
2013-07-04 08:17:00,77.5,75.7,30.20,South,180,0.0,0.0,94,0.00,SCT,OVC,0.00,0.0,WeatherDisplay:10.37,2013-07-04 12:17:00,
2013-07-04 08:22:00,77.9,76.0,30.20,South,173,5.8,5.8,94,0.00,SCT,OVC,0.00,0.0,WeatherDisplay:10.37,2013-07-04 12:22:00,
2013-07-04 08:27:00,78.1,76.2,30.20,WSW,242,5.8,5.8,94,0.00,SCT,OVC,0.00,0.0,WeatherDisplay:10.37,2013-07-04 12:27:00,
2013-07-04 08:32:00,78.3,76.1,30.20,WSW,255,4.6,4.6,93,0.00,SCT,OVC,0.00,0.0,WeatherDisplay:10.37,2013-07-04 12:32:00,
2013-07-04 08:37:00,78.4,75.9,30.20,NNE,16,0.0,0.0,92,0.00,SCT,OVC,0.00,0.0,WeatherDisplay:10.37,2013-07-04 12:37:00,
2013-07-04 08:42:00,78.6,75.8,30.20,NNW,340,0.0,0.0,91,0.00,SCT,OVC,0.00,0.0,WeatherDisplay:10.37,2013-07-04 12:42:00,
2013-07-04 08:47:00,78.8,75.9,30.20,West,267,9.2,9.2,91,0.00,SCT,OVC,0.00,0.0,WeatherDisplay:10.37,2013-07-04 12:47:00,
2013-07-04 08:52:00,79.0,75.8,30.20,WNW,287,4.6,4.6,90,0.00,SCT,OVC,0.00,0.0,WeatherDisplay:10.37,2013-07-04 12:52:00,
2013-07-04 08:57:00,79.2,76.0,30.20,SW,235,0.0,0.0,90,0.00,SCT,OVC,0.00,0.0,WeatherDisplay:10.37,2013-07-04 12:57:00,
2013-07-04 09:02:00,79.2,75.6,30.20,NW,326,0.0,0.0,89,0.00,SCT,OVC,0.00,0.0,WeatherDisplay:10.37,2013-07-04 13:02:00,
2013-07-04 09:07:00,79.3,75.8,30.20,NW,304,5.8,5.8,89,0.00,SCT,OVC,0.00,0.0,WeatherDisplay:10.37,2013-07-04 13:07:00,
2013-07-04 09:12:00,79.5,76.0,30.20,NNW,337,0.0,0.0,89,0.00,SCT,OVC,0.00,0.0,WeatherDisplay:10.37,2013-07-04 13:12:00,
2013-07-04 09:17:00,79.7,75.8,30.20,NW,316,0.0,0.0,88,0.00,SCT,OVC,0.00,0.0,WeatherDisplay:10.37,2013-07-04 13:17:00,
2013-07-04 09:22:00,80.1,76.2,30.20,WSW,253,3.5,3.5,88,0.00,SCT,OVC,0.00,0.0,WeatherDisplay:10.37,2013-07-04 13:22:00,
2013-07-04 09:27:00,80.4,76.2,30.20,NNW,343,0.0,0.0,87,0.00,SCT,OVC,0.00,0.0,WeatherDisplay:10.37,2013-07-04 13:27:00,
2013-07-04 09:32:00,80.6,76.4,30.20,WNW,290,0.0,0.0,87,0.00,SCT,OVC,0.00,0.0,WeatherDisplay:10.37,2013-07-04 13:32:00,
2013-07-04 09:37:00,81.0,76.7,30.20,South,188,0.0,0.0,87,0.00,SCT,OVC,0.00,0.0,WeatherDisplay:10.37,2013-07-04 13:37:00,
2013-07-04 09:42:00,81.3,76.7,30.17,NW,311,3.5,3.5,86,0.00,SCT,OVC,0.00,0.0,WeatherDisplay:10.37,2013-07-04 13:42:00,
2013-07-04 09:47:00,81.7,76.7,30.17,West,264,5.8,5.8,85,0.00,SCT,OVC,0.00,0.0,WeatherDisplay:10.37,2013-07-04 13:47:00,
2013-07-04 09:52:00,82.0,76.7,30.17,NNW,333,3.5,3.5,84,0.00,SCT,OVC,0.00,0.0,WeatherDisplay:10.37,2013-07-04 13:52:00,
2013-07-04 09:57:00,82.4,76.3,30.17,NNW,328,4.6,4.6,82,0.00,SCT,OVC,0.00,0.0,WeatherDisplay:10.37,2013-07-04 13:57:00,
2013-07-04 10:02:00,82.8,76.3,30.17,North,349,8.1,8.1,81,0.00,FEW,OVC,0.00,0.0,WeatherDisplay:10.37,2013-07-04 14:02:00,
2013-07-04 10:07:00,83.3,76.5,30.17,West,276,6.9,6.9,80,0.00,FEW,OVC,0.00,0.0,WeatherDisplay:10.37,2013-07-04 14:07:00,
2013-07-04 10:12:00,83.7,76.5,30.17,NW,316,4.6,4.6,79,0.00,FEW,OVC,0.00,0.0,WeatherDisplay:10.37,2013-07-04 14:12:00,
2013-07-04 10:17:00,84.2,75.8,30.17,North,358,6.3,6.3,76,0.00,FEW,OVC,0.00,0.0,WeatherDisplay:10.37,2013-07-04 14:17:00,
2013-07-04 10:22:00,84.4,74.8,30.17,South,185,4.6,4.6,73,0.00,FEW,OVC,0.00,0.0,WeatherDisplay:10.37,2013-07-04 14:22:00,
2013-07-04 10:27:00,84.6,73.7,30.17,WSW,245,4.6,4.6,70,0.00,FEW,OVC,0.00,0.0,WeatherDisplay:10.37,2013-07-04 14:27:00,
2013-07-04 10:32:00,85.1,75.1,30.17,SSE,155,8.1,8.1,72,0.00,FEW,OVC,0.00,0.0,WeatherDisplay:10.37,2013-07-04 14:32:00,
2013-07-04 10:37:00,85.5,75.0,30.17,WNW,285,4.6,4.6,71,0.00,FEW,OVC,0.00,0.0,WeatherDisplay:10.37,2013-07-04 14:37:00,
2013-07-04 10:42:00,85.8,75.3,30.17,NNE,19,5.8,5.8,71,0.00,FEW,OVC,0.00,0.0,WeatherDisplay:10.37,2013-07-04 14:42:00,
2013-07-04 10:47:00,86.2,74.4,30.17,South,185,5.8,5.8,68,0.00,FEW,OVC,0.00,0.0,WeatherDisplay:10.37,2013-07-04 14:47:00,
2013-07-04 10:52:00,86.5,74.7,30.17,WSW,251,4.9,0.0,68,0.00,FEW,OVC,0.00,0.0,WeatherDisplay:10.37,2013-07-04 14:52:00,
2013-07-04 10:57:00,86.7,74.4,30.17,NW,308,3.5,3.5,67,0.00,FEW,OVC,0.00,0.0,WeatherDisplay:10.37,2013-07-04 14:57:00,
2013-07-04 11:02:00,86.9,73.7,30.17,South,177,2.3,0.0,65,0.00,FEW,OVC,0.00,0.0,WeatherDisplay:10.37,2013-07-04 15:02:00,
2013-07-04 11:07:00,86.9,72.8,30.17,WNW,298,3.5,3.5,63,0.00,FEW,OVC,0.00,0.0,WeatherDisplay:10.37,2013-07-04 15:07:00,
2013-07-04 11:12:00,87.1,73.9,30.17,West,267,5.8,5.8,65,0.00,FEW,OVC,0.00,0.0,WeatherDisplay:10.37,2013-07-04 15:12:00,
2013-07-04 11:17:00,87.3,74.1,30.17,South,180,3.5,3.5,65,0.00,FEW,OVC,0.00,0.0,WeatherDisplay:10.37,2013-07-04 15:17:00,
2013-07-04 11:22:00,87.4,73.8,30.17,South,188,8.1,8.1,64,0.00,FEW,OVC,0.00,0.0,WeatherDisplay:10.37,2013-07-04 15:22:00,
2013-07-04 11:27:00,87.6,73.0,30.17,SSE,163,8.1,8.1,62,0.00,FEW,OVC,0.00,0.0,WeatherDisplay:10.37,2013-07-04 15:27:00,
2013-07-04 11:32:00,87.8,73.2,30.17,WSW,256,3.5,3.5,62,0.00,FEW,OVC,0.00,0.0,WeatherDisplay:10.37,2013-07-04 15:32:00,
2013-07-04 11:37:00,88.2,72.0,30.17,NW,326,5.8,5.8,59,0.00,FEW,OVC,0.00,0.0,WeatherDisplay:10.37,2013-07-04 15:37:00,
2013-07-04 11:42:00,88.5,72.9,30.17,SSE,154,5.8,5.8,60,0.00,FEW,OVC,0.00,0.0,WeatherDisplay:10.37,2013-07-04 15:42:00,
2013-07-04 11:47:00,88.7,73.0,30.17,West,259,8.1,8.1,60,0.00,FEW,OVC,0.00,0.0,WeatherDisplay:10.37,2013-07-04 15:47:00,
2013-07-04 11:52:00,88.9,72.7,30.17,WSW,239,9.2,9.2,59,0.00,FEW,OVC,0.00,0.0,WeatherDisplay:10.37,2013-07-04 15:52:00,
2013-07-04 11:57:00,88.7,72.5,30.17,West,277,2.7,0.0,59,0.00,FEW,OVC,0.00,0.0,WeatherDisplay:10.37,2013-07-04 15:57:00,
2013-07-04 12:02:00,88.7,72.0,30.17,NW,321,5.8,5.8,58,0.00,FEW,OVC,0.00,0.0,WeatherDisplay:10.37,2013-07-04 16:02:00,
2013-07-04 12:07:00,88.9,72.7,30.17,WSW,240,0.0,0.0,59,0.00,FEW,OVC,0.00,0.0,WeatherDisplay:10.37,2013-07-04 16:07:00,
2013-07-04 12:12:00,89.4,72.7,30.17,SW,233,5.8,5.8,58,0.00,FEW,OVC,0.00,0.0,WeatherDisplay:10.37,2013-07-04 16:12:00,
2013-07-04 12:17:00,89.4,72.2,30.17,North,355,11.5,11.5,57,0.00,FEW,OVC,0.00,0.0,WeatherDisplay:10.37,2013-07-04 16:17:00,
2013-07-04 12:22:00,89.8,72.0,30.17,SSW,212,8.1,8.1,56,0.00,FEW,OVC,0.00,0.0,WeatherDisplay:10.37,2013-07-04 16:22:00,
2013-07-04 12:27:00,90.0,72.2,30.14,South,180,8.1,8.1,56,0.00,FEW,OVC,0.00,0.0,WeatherDisplay:10.37,2013-07-04 16:27:00,
2013-07-04 12:32:00,90.3,72.5,30.14,West,261,4.6,4.6,56,0.00,FEW,OVC,0.00,0.0,WeatherDisplay:10.37,2013-07-04 16:32:00,
2013-07-04 12:37:00,90.5,72.1,30.14,South,180,5.8,5.8,55,0.00,FEW,OVC,0.00,0.0,WeatherDisplay:10.37,2013-07-04 16:37:00,
2013-07-04 12:42:00,90.3,72.0,30.14,West,281,5.8,5.8,55,0.00,FEW,OVC,0.00,0.0,WeatherDisplay:10.37,2013-07-04 16:42:00,
2013-07-04 12:47:00,90.5,72.1,30.14,West,280,8.1,8.1,55,0.00,FEW,OVC,0.00,0.0,WeatherDisplay:10.37,2013-07-04 16:47:00,
2013-07-04 12:52:00,90.5,71.6,30.14,WNW,289,5.8,5.8,54,0.00,FEW,OVC,0.00,0.0,WeatherDisplay:10.37,2013-07-04 16:52:00,
2013-07-04 12:57:00,90.3,72.0,30.14,SE,140,4.6,0.0,55,0.00,FEW,OVC,0.00,0.0,WeatherDisplay:10.37,2013-07-04 16:57:00,
2013-07-04 13:02:00,90.5,72.1,30.14,West,279,5.8,5.8,55,0.00,SCT,OVC,0.00,0.0,WeatherDisplay:10.37,2013-07-04 17:02:00,
2013-07-04 13:07:00,90.7,72.3,30.14,NE,40,8.1,8.1,55,0.00,SCT,OVC,0.00,0.0,WeatherDisplay:10.37,2013-07-04 17:07:00,
2013-07-04 13:12:00,90.5,71.6,30.14,West,259,3.5,3.5,54,0.00,SCT,OVC,0.00,0.0,WeatherDisplay:10.37,2013-07-04 17:12:00,
2013-07-04 13:17:00,90.3,72.0,30.14,WNW,298,5.8,5.8,55,0.00,SCT,OVC,0.00,0.0,WeatherDisplay:10.37,2013-07-04 17:17:00,
2013-07-04 13:22:00,90.7,72.3,30.14,South,173,10.4,10.4,55,0.00,SCT,OVC,0.00,0.0,WeatherDisplay:10.37,2013-07-04 17:22:00,
2013-07-04 13:27:00,90.7,71.7,30.14,SSW,201,8.1,8.1,54,0.00,SCT,OVC,0.00,0.0,WeatherDisplay:10.37,2013-07-04 17:27:00,
2013-07-04 13:32:00,90.7,71.7,30.14,SW,226,3.5,4.9,54,0.00,SCT,OVC,0.00,0.0,WeatherDisplay:10.37,2013-07-04 17:32:00,
2013-07-04 13:37:00,90.5,71.6,30.14,South,187,5.8,5.8,54,0.00,SCT,OVC,0.00,0.0,WeatherDisplay:10.37,2013-07-04 17:37:00,
2013-07-04 13:42:00,90.5,71.6,30.14,South,173,5.8,5.8,54,0.00,SCT,OVC,0.00,0.0,WeatherDisplay:10.37,2013-07-04 17:42:00,
2013-07-04 13:47:00,89.8,71.5,30.14,West,267,5.8,5.8,55,0.00,SCT,OVC,0.00,0.0,WeatherDisplay:10.37,2013-07-04 17:47:00,
2013-07-04 13:52:00,89.2,71.0,30.14,WNW,293,5.8,5.8,55,0.00,SCT,OVC,0.00,0.0,WeatherDisplay:10.37,2013-07-04 17:52:00,
2013-07-04 13:57:00,88.9,71.2,30.14,WNW,302,3.5,0.0,56,0.00,SCT,OVC,0.00,0.0,WeatherDisplay:10.37,2013-07-04 17:57:00,
2013-07-04 14:02:00,89.1,71.3,30.14,WNW,299,5.8,5.8,56,0.00,SCT,OVC,0.00,0.0,WeatherDisplay:10.37,2013-07-04 18:02:00,
2013-07-04 14:07:00,89.6,71.8,30.14,WSW,255,8.1,8.1,56,0.00,SCT,OVC,0.00,0.0,WeatherDisplay:10.37,2013-07-04 18:07:00,
2013-07-04 14:12:00,89.6,71.3,30.14,NNE,18,8.1,8.1,55,0.00,SCT,OVC,0.00,0.0,WeatherDisplay:10.37,2013-07-04 18:12:00,
2013-07-04 14:17:00,89.6,71.3,30.14,WSW,237,4.6,4.6,55,0.00,SCT,OVC,0.00,0.0,WeatherDisplay:10.37,2013-07-04 18:17:00,
2013-07-04 14:22:00,89.8,71.5,30.14,North,360,5.8,5.8,55,0.00,SCT,OVC,0.00,0.0,WeatherDisplay:10.37,2013-07-04 18:22:00,
2013-07-04 14:27:00,90.1,71.8,30.14,WSW,241,9.2,9.2,55,0.00,SCT,OVC,0.00,0.0,WeatherDisplay:10.37,2013-07-04 18:27:00,
2013-07-04 14:32:00,90.3,72.0,30.14,South,181,5.8,5.8,55,0.00,SCT,OVC,0.00,0.0,WeatherDisplay:10.37,2013-07-04 18:32:00,
2013-07-04 14:37:00,90.7,72.3,30.14,SSW,211,8.1,8.1,55,0.00,SCT,OVC,0.00,0.0,WeatherDisplay:10.37,2013-07-04 18:37:00,
2013-07-04 14:42:00,90.7,72.3,30.11,NNE,19,5.8,5.8,55,0.00,SCT,OVC,0.00,0.0,WeatherDisplay:10.37,2013-07-04 18:42:00,
2013-07-04 14:47:00,90.9,72.5,30.11,SW,232,9.2,9.2,55,0.00,SCT,OVC,0.00,0.0,WeatherDisplay:10.37,2013-07-04 18:47:00,
2013-07-04 14:52:00,91.0,72.6,30.11,WSW,256,10.4,10.4,55,0.00,SCT,OVC,0.00,0.0,WeatherDisplay:10.37,2013-07-04 18:52:00,
2013-07-04 14:57:00,91.2,72.2,30.11,NNW,330,8.1,8.1,54,0.00,SCT,OVC,0.00,0.0,WeatherDisplay:10.37,2013-07-04 18:57:00,
2013-07-04 15:02:00,91.0,72.1,30.11,West,269,8.1,8.1,54,0.00,SCT,OVC,0.00,0.0,WeatherDisplay:10.37,2013-07-04 19:02:00,
2013-07-04 15:07:00,91.2,72.8,30.11,WNW,303,5.8,5.8,55,0.00,SCT,OVC,0.00,0.0,WeatherDisplay:10.37,2013-07-04 19:07:00,
2013-07-04 15:12:00,91.0,72.1,30.11,North,359,5.8,5.8,54,0.00,SCT,OVC,0.00,0.0,WeatherDisplay:10.37,2013-07-04 19:12:00,
2013-07-04 15:17:00,90.5,71.6,30.11,South,173,6.9,6.9,54,0.00,SCT,OVC,0.00,0.0,WeatherDisplay:10.37,2013-07-04 19:17:00,
2013-07-04 15:22:00,90.1,71.2,30.11,SSE,147,8.1,8.1,54,0.00,SCT,OVC,0.00,0.0,WeatherDisplay:10.37,2013-07-04 19:22:00,
2013-07-04 15:27:00,90.1,71.8,30.11,West,267,5.8,5.8,55,0.00,SCT,OVC,0.00,0.0,WeatherDisplay:10.37,2013-07-04 19:27:00,
2013-07-04 15:32:00,90.3,72.0,30.11,NW,308,8.1,8.1,55,0.00,SCT,OVC,0.00,0.0,WeatherDisplay:10.37,2013-07-04 19:32:00,
2013-07-04 15:37:00,90.7,72.3,30.11,South,190,0.0,0.0,55,0.00,SCT,OVC,0.00,0.0,WeatherDisplay:10.37,2013-07-04 19:37:00,
2013-07-04 15:42:00,90.9,72.5,30.11,WSW,254,3.5,3.5,55,0.00,SCT,OVC,0.00,0.0,WeatherDisplay:10.37,2013-07-04 19:42:00,
2013-07-04 15:47:00,90.9,72.5,30.11,NW,318,3.5,3.5,55,0.00,SCT,OVC,0.00,0.0,WeatherDisplay:10.37,2013-07-04 19:47:00,
2013-07-04 15:52:00,91.0,72.6,30.11,SSW,203,9.2,9.2,55,0.00,SCT,OVC,0.00,0.0,WeatherDisplay:10.37,2013-07-04 19:52:00,
2013-07-04 15:57:00,91.0,72.1,30.11,SSE,157,8.1,8.1,54,0.00,SCT,OVC,0.00,0.0,WeatherDisplay:10.37,2013-07-04 19:57:00,
2013-07-04 16:02:00,90.9,71.9,30.11,NW,310,3.5,3.5,54,0.00,SCT,OVC,0.00,0.0,WeatherDisplay:10.37,2013-07-04 20:02:00,
2013-07-04 16:07:00,90.9,72.5,30.11,WNW,292,8.1,8.1,55,0.00,SCT,OVC,0.00,0.0,WeatherDisplay:10.37,2013-07-04 20:07:00,
2013-07-04 16:12:00,90.5,72.1,30.11,NE,37,4.6,4.9,55,0.00,SCT,OVC,0.00,0.0,WeatherDisplay:10.37,2013-07-04 20:12:00,
2013-07-04 16:17:00,90.0,71.6,30.11,South,177,5.8,5.8,55,0.00,SCT,OVC,0.00,0.0,WeatherDisplay:10.37,2013-07-04 20:17:00,
2013-07-04 16:22:00,90.1,72.3,30.11,WSW,254,5.8,5.8,56,0.00,SCT,OVC,0.00,0.0,WeatherDisplay:10.37,2013-07-04 20:22:00,
2013-07-04 16:27:00,90.3,72.5,30.11,North,353,5.8,5.8,56,0.00,SCT,OVC,0.00,0.0,WeatherDisplay:10.37,2013-07-04 20:27:00,
2013-07-04 16:32:00,90.0,72.2,30.11,SE,145,9.2,9.2,56,0.00,SCT,OVC,0.00,0.0,WeatherDisplay:10.37,2013-07-04 20:32:00,
2013-07-04 16:37:00,89.8,72.0,30.11,South,189,5.8,5.8,56,0.00,SCT,OVC,0.00,0.0,WeatherDisplay:10.37,2013-07-04 20:37:00,
2013-07-04 16:42:00,90.0,72.7,30.11,WNW,303,5.8,5.8,57,0.00,SCT,OVC,0.00,0.0,WeatherDisplay:10.37,2013-07-04 20:42:00,
2013-07-04 16:47:00,90.3,73.0,30.11,West,276,2.3,0.0,57,0.00,SCT,OVC,0.00,0.0,WeatherDisplay:10.37,2013-07-04 20:47:00,
2013-07-04 16:52:00,90.5,73.2,30.11,SE,134,3.5,3.5,57,0.00,SCT,OVC,0.00,0.0,WeatherDisplay:10.37,2013-07-04 20:52:00,
2013-07-04 16:57:00,90.1,72.3,30.08,South,177,8.1,8.1,56,0.00,SCT,OVC,0.00,0.0,WeatherDisplay:10.37,2013-07-04 20:57:00,
2013-07-04 17:02:00,89.6,71.8,30.08,WSW,241,8.1,8.1,56,0.00,FEW,OVC,0.00,0.0,WeatherDisplay:10.37,2013-07-04 21:02:00,
2013-07-04 17:07:00,89.6,71.8,30.08,WSW,258,4.6,4.6,56,0.00,FEW,OVC,0.00,0.0,WeatherDisplay:10.37,2013-07-04 21:07:00,
2013-07-04 17:12:00,89.6,72.3,30.08,South,177,8.1,8.1,57,0.00,FEW,OVC,0.00,0.0,WeatherDisplay:10.37,2013-07-04 21:12:00,
2013-07-04 17:17:00,89.2,72.0,30.08,NNW,341,8.1,8.1,57,0.00,FEW,OVC,0.00,0.0,WeatherDisplay:10.37,2013-07-04 21:17:00,
2013-07-04 17:22:00,88.7,71.5,30.08,NNW,329,4.6,4.6,57,0.00,FEW,OVC,0.00,0.0,WeatherDisplay:10.37,2013-07-04 21:22:00,
2013-07-04 17:27:00,88.7,71.5,30.08,SSW,201,5.8,5.8,57,0.00,FEW,OVC,0.00,0.0,WeatherDisplay:10.37,2013-07-04 21:27:00,
2013-07-04 17:32:00,88.7,72.0,30.08,NW,313,5.8,5.8,58,0.00,FEW,OVC,0.00,0.0,WeatherDisplay:10.37,2013-07-04 21:32:00,
2013-07-04 17:37:00,88.9,71.7,30.08,SW,215,8.1,8.1,57,0.00,FEW,OVC,0.00,0.0,WeatherDisplay:10.37,2013-07-04 21:37:00,
2013-07-04 17:42:00,88.9,71.7,30.08,South,177,5.8,5.8,57,0.00,FEW,OVC,0.00,0.0,WeatherDisplay:10.37,2013-07-04 21:42:00,
2013-07-04 17:47:00,88.7,71.5,30.08,NNE,16,5.8,5.8,57,0.00,FEW,OVC,0.00,0.0,WeatherDisplay:10.37,2013-07-04 21:47:00,
2013-07-04 17:52:00,88.5,71.3,30.08,SSW,211,5.8,5.8,57,0.00,FEW,OVC,0.00,0.0,WeatherDisplay:10.37,2013-07-04 21:52:00,
2013-07-04 17:57:00,88.3,71.7,30.08,SSW,201,5.8,0.0,58,0.00,FEW,OVC,0.00,0.0,WeatherDisplay:10.37,2013-07-04 21:57:00,
2013-07-04 18:02:00,88.2,71.5,30.08,West,275,4.6,4.6,58,0.00,FEW,OVC,0.00,0.0,WeatherDisplay:10.37,2013-07-04 22:02:00,
2013-07-04 18:07:00,87.8,71.2,30.08,NNW,335,5.8,5.8,58,0.00,FEW,OVC,0.00,0.0,WeatherDisplay:10.37,2013-07-04 22:07:00,
2013-07-04 18:12:00,87.6,71.0,30.08,SSE,159,10.4,10.4,58,0.00,FEW,OVC,0.00,0.0,WeatherDisplay:10.37,2013-07-04 22:12:00,
2013-07-04 18:17:00,87.4,70.8,30.08,WNW,296,5.8,5.8,58,0.00,FEW,OVC,0.00,0.0,WeatherDisplay:10.37,2013-07-04 22:17:00,
2013-07-04 18:22:00,87.4,70.8,30.08,West,272,5.8,5.8,58,0.00,FEW,OVC,0.00,0.0,WeatherDisplay:10.37,2013-07-04 22:22:00,
2013-07-04 18:27:00,87.3,71.2,30.08,SSE,152,5.8,5.8,59,0.00,FEW,OVC,0.00,0.0,WeatherDisplay:10.37,2013-07-04 22:27:00,
2013-07-04 18:32:00,87.3,71.7,30.08,West,265,3.5,3.5,60,0.00,FEW,OVC,0.00,0.0,WeatherDisplay:10.37,2013-07-04 22:32:00,
2013-07-04 18:37:00,87.1,71.5,30.08,SSW,211,3.5,3.5,60,0.00,FEW,OVC,0.00,0.0,WeatherDisplay:10.37,2013-07-04 22:37:00,
2013-07-04 18:42:00,86.9,71.3,30.08,SSW,205,3.5,0.0,60,0.00,FEW,OVC,0.00,0.0,WeatherDisplay:10.37,2013-07-04 22:42:00,
2013-07-04 18:47:00,86.7,71.2,30.08,SSW,208,3.5,3.5,60,0.00,FEW,OVC,0.00,0.0,WeatherDisplay:10.37,2013-07-04 22:47:00,
2013-07-04 18:52:00,86.5,71.5,30.08,South,180,5.8,5.8,61,0.00,FEW,OVC,0.00,0.0,WeatherDisplay:10.37,2013-07-04 22:52:00,
2013-07-04 18:57:00,86.2,71.2,30.08,South,173,4.6,4.6,61,0.00,FEW,OVC,0.00,0.0,WeatherDisplay:10.37,2013-07-04 22:57:00,
2013-07-04 19:02:00,86.0,71.0,30.08,NW,311,8.1,8.1,61,0.00,FEW,OVC,0.00,0.0,WeatherDisplay:10.37,2013-07-04 23:02:00,
2013-07-04 19:07:00,85.8,71.3,30.08,SSW,193,5.8,5.8,62,0.00,FEW,OVC,0.00,0.0,WeatherDisplay:10.37,2013-07-04 23:07:00,
2013-07-04 19:12:00,85.6,71.1,30.08,South,177,5.8,5.8,62,0.00,FEW,OVC,0.00,0.0,WeatherDisplay:10.37,2013-07-04 23:12:00,
2013-07-04 19:17:00,85.5,71.4,30.08,South,180,5.8,5.8,63,0.00,FEW,OVC,0.00,0.0,WeatherDisplay:10.37,2013-07-04 23:17:00,
2013-07-04 19:22:00,85.3,71.3,30.08,WSW,241,6.9,6.9,63,0.00,FEW,OVC,0.00,0.0,WeatherDisplay:10.37,2013-07-04 23:22:00,
2013-07-04 19:27:00,85.1,71.1,30.11,South,187,9.2,9.2,63,0.00,FEW,OVC,0.00,0.0,WeatherDisplay:10.37,2013-07-04 23:27:00,
2013-07-04 19:32:00,84.7,71.2,30.11,SSW,209,5.8,0.0,64,0.00,FEW,OVC,0.00,0.0,WeatherDisplay:10.37,2013-07-04 23:32:00,
2013-07-04 19:37:00,84.6,71.5,30.11,SE,132,0.0,0.0,65,0.00,FEW,OVC,0.00,0.0,WeatherDisplay:10.37,2013-07-04 23:37:00,
2013-07-04 19:42:00,84.4,71.3,30.11,SW,217,9.2,9.2,65,0.00,FEW,OVC,0.00,0.0,WeatherDisplay:10.37,2013-07-04 23:42:00,
2013-07-04 19:47:00,84.2,71.2,30.11,SSE,161,4.6,4.6,65,0.00,FEW,OVC,0.00,0.0,WeatherDisplay:10.37,2013-07-04 23:47:00,
2013-07-04 19:52:00,84.0,71.4,30.11,SW,219,8.1,8.1,66,0.00,FEW,OVC,0.00,0.0,WeatherDisplay:10.37,2013-07-04 23:52:00,
2013-07-04 19:57:00,83.8,71.7,30.11,South,180,8.1,8.1,67,0.00,FEW,OVC,0.00,0.0,WeatherDisplay:10.37,2013-07-04 23:57:00,
2013-07-04 20:02:00,83.5,71.4,30.11,SW,233,8.1,8.1,67,0.00,FEW,OVC,0.00,0.0,WeatherDisplay:10.37,2013-07-05 00:02:00,
2013-07-04 20:07:00,83.3,71.2,30.11,South,180,3.5,3.5,67,0.00,FEW,OVC,0.00,0.0,WeatherDisplay:10.37,2013-07-05 00:07:00,
2013-07-04 20:12:00,83.1,71.5,30.11,South,188,5.8,5.8,68,0.00,FEW,OVC,0.00,0.0,WeatherDisplay:10.37,2013-07-05 00:12:00,
2013-07-04 20:17:00,82.8,71.1,30.11,SSW,207,6.9,6.9,68,0.00,FEW,OVC,0.00,0.0,WeatherDisplay:10.37,2013-07-05 00:17:00,
2013-07-04 20:22:00,82.6,71.4,30.11,SSW,203,5.8,5.8,69,0.00,FEW,OVC,0.00,0.0,WeatherDisplay:10.37,2013-07-05 00:22:00,
2013-07-04 20:27:00,82.4,71.2,30.11,SSE,161,5.8,5.8,69,0.00,FEW,OVC,0.00,0.0,WeatherDisplay:10.37,2013-07-05 00:27:00,
2013-07-04 20:32:00,82.2,71.5,30.11,WSW,243,5.8,5.8,70,0.00,FEW,OVC,0.00,0.0,WeatherDisplay:10.37,2013-07-05 00:32:00,
2013-07-04 20:37:00,82.0,71.3,30.11,SSE,158,3.5,0.0,70,0.00,FEW,OVC,0.00,0.0,WeatherDisplay:10.37,2013-07-05 00:37:00,
2013-07-04 20:42:00,81.9,71.1,30.11,South,173,3.5,3.6,70,0.00,FEW,OVC,0.00,0.0,WeatherDisplay:10.37,2013-07-05 00:42:00,
2013-07-04 20:47:00,81.7,71.4,30.11,SE,142,5.8,5.8,71,0.00,FEW,OVC,0.00,0.0,WeatherDisplay:10.37,2013-07-05 00:47:00,
2013-07-04 20:52:00,81.3,71.0,30.11,South,185,4.5,0.0,71,0.00,FEW,OVC,0.00,0.0,WeatherDisplay:10.37,2013-07-05 00:52:00,
2013-07-04 20:57:00,81.1,71.3,30.11,SSW,193,8.1,8.1,72,0.00,FEW,OVC,0.00,0.0,WeatherDisplay:10.37,2013-07-05 00:57:00,
2013-07-04 21:02:00,81.0,71.5,30.11,South,187,2.3,0.0,73,0.00,FEW,OVC,0.00,0.0,WeatherDisplay:10.37,2013-07-05 01:02:00,
2013-07-04 21:07:00,80.8,71.3,30.11,NNE,15,3.5,3.5,73,0.00,FEW,OVC,0.00,0.0,WeatherDisplay:10.37,2013-07-05 01:07:00,
2013-07-04 21:12:00,80.6,71.1,30.11,SE,125,4.6,4.6,73,0.00,FEW,OVC,0.00,0.0,WeatherDisplay:10.37,2013-07-05 01:12:00,
2013-07-04 21:17:00,80.4,71.4,30.11,South,183,4.6,4.6,74,0.00,FEW,OVC,0.00,0.0,WeatherDisplay:10.37,2013-07-05 01:17:00,
2013-07-04 21:22:00,80.2,71.2,30.11,SSW,195,4.6,4.6,74,0.00,FEW,OVC,0.00,0.0,WeatherDisplay:10.37,2013-07-05 01:22:00,
2013-07-04 21:27:00,80.1,71.4,30.14,South,173,8.1,8.1,75,0.00,FEW,OVC,0.00,0.0,WeatherDisplay:10.37,2013-07-05 01:27:00,
2013-07-04 21:32:00,80.1,71.4,30.14,SSW,198,5.8,5.8,75,0.00,FEW,OVC,0.00,0.0,WeatherDisplay:10.37,2013-07-05 01:32:00,
2013-07-04 21:37:00,79.9,71.2,30.14,SSW,196,4.6,4.6,75,0.00,FEW,OVC,0.00,0.0,WeatherDisplay:10.37,2013-07-05 01:37:00,
2013-07-04 21:42:00,79.7,71.5,30.14,East,91,5.8,5.8,76,0.00,FEW,OVC,0.00,0.0,WeatherDisplay:10.37,2013-07-05 01:42:00,
2013-07-04 21:47:00,79.5,71.3,30.14,SSW,201,5.8,5.8,76,0.00,FEW,OVC,0.00,0.0,WeatherDisplay:10.37,2013-07-05 01:47:00,
2013-07-04 21:52:00,79.5,71.3,30.14,ESE,118,3.5,3.5,76,0.00,FEW,OVC,0.00,0.0,WeatherDisplay:10.37,2013-07-05 01:52:00,
2013-07-04 21:57:00,79.3,71.1,30.14,SSW,194,8.1,8.1,76,0.00,FEW,OVC,0.00,0.0,WeatherDisplay:10.37,2013-07-05 01:57:00,
2013-07-04 22:02:00,79.2,70.9,30.14,SW,217,5.8,5.8,76,0.00,CLR,OVC,0.00,0.0,WeatherDisplay:10.37,2013-07-05 02:02:00,
2013-07-04 22:07:00,79.2,70.9,30.14,SSE,148,3.5,0.0,76,0.00,CLR,OVC,0.00,0.0,WeatherDisplay:10.37,2013-07-05 02:07:00,
2013-07-04 22:12:00,79.0,70.8,30.14,NW,320,5.8,5.8,76,0.00,CLR,OVC,0.00,0.0,WeatherDisplay:10.37,2013-07-05 02:12:00,
2013-07-04 22:17:00,78.8,70.6,30.14,ESE,109,3.5,0.0,76,0.00,CLR,OVC,0.00,0.0,WeatherDisplay:10.37,2013-07-05 02:17:00,
2013-07-04 22:22:00,78.8,71.0,30.14,SW,225,3.5,3.5,77,0.00,CLR,OVC,0.00,0.0,WeatherDisplay:10.37,2013-07-05 02:22:00,
2013-07-04 22:27:00,78.6,70.8,30.11,SSW,212,8.1,8.1,77,0.00,CLR,OVC,0.00,0.0,WeatherDisplay:10.37,2013-07-05 02:27:00,
2013-07-04 22:32:00,78.6,70.8,30.11,SSW,199,3.5,3.5,77,0.00,CLR,OVC,0.00,0.0,WeatherDisplay:10.37,2013-07-05 02:32:00,
2013-07-04 22:37:00,78.4,71.0,30.11,West,275,10.4,10.4,78,0.00,CLR,OVC,0.00,0.0,WeatherDisplay:10.37,2013-07-05 02:37:00,
2013-07-04 22:42:00,78.3,71.2,30.14,South,189,4.6,4.6,79,0.00,CLR,OVC,0.00,0.0,WeatherDisplay:10.37,2013-07-05 02:42:00,
2013-07-04 22:47:00,78.3,70.8,30.14,West,260,8.1,8.1,78,0.00,CLR,OVC,0.00,0.0,WeatherDisplay:10.37,2013-07-05 02:47:00,
2013-07-04 22:52:00,78.3,71.2,30.14,SSW,194,5.8,5.8,79,0.00,CLR,OVC,0.00,0.0,WeatherDisplay:10.37,2013-07-05 02:52:00,
2013-07-04 22:57:00,78.1,71.0,30.11,South,186,3.5,3.5,79,0.00,CLR,OVC,0.00,0.0,WeatherDisplay:10.37,2013-07-05 02:57:00,
2013-07-04 23:02:00,78.1,71.0,30.11,SSW,201,5.8,5.8,79,0.00,CLR,OVC,0.00,0.0,WeatherDisplay:10.37,2013-07-05 03:02:00,
2013-07-04 23:07:00,77.9,70.9,30.11,SW,214,5.8,5.8,79,0.00,CLR,OVC,0.00,0.0,WeatherDisplay:10.37,2013-07-05 03:07:00,
2013-07-04 23:12:00,77.9,70.9,30.11,SE,136,8.1,8.1,79,0.00,CLR,OVC,0.00,0.0,WeatherDisplay:10.37,2013-07-05 03:12:00,
2013-07-04 23:17:00,77.7,70.7,30.11,South,180,2.3,0.0,79,0.00,CLR,OVC,0.00,0.0,WeatherDisplay:10.37,2013-07-05 03:17:00,
2013-07-04 23:22:00,77.7,71.1,30.11,SW,217,3.5,0.0,80,0.00,CLR,OVC,0.00,0.0,WeatherDisplay:10.37,2013-07-05 03:22:00,
2013-07-04 23:27:00,77.5,70.9,30.11,SSW,199,5.8,5.8,80,0.00,CLR,OVC,0.00,0.0,WeatherDisplay:10.37,2013-07-05 03:27:00,
2013-07-04 23:32:00,77.5,70.9,30.11,East,82,4.6,4.6,80,0.00,CLR,OVC,0.00,0.0,WeatherDisplay:10.37,2013-07-05 03:32:00,
2013-07-04 23:37:00,77.4,70.7,30.11,South,173,5.8,5.8,80,0.00,CLR,OVC,0.00,0.0,WeatherDisplay:10.37,2013-07-05 03:37:00,
2013-07-04 23:42:00,77.4,70.7,30.11,West,261,5.8,5.8,80,0.00,CLR,OVC,0.00,0.0,WeatherDisplay:10.37,2013-07-05 03:42:00,
2013-07-04 23:47:00,77.4,70.7,30.11,SSW,212,3.5,3.6,80,0.00,CLR,OVC,0.00,0.0,WeatherDisplay:10.37,2013-07-05 03:47:00,
2013-07-04 23:52:00,77.2,70.5,30.11,NW,319,4.6,4.6,80,0.00,CLR,OVC,0.00,0.0,WeatherDisplay:10.37,2013-07-05 03:52:00,
2013-07-04 23:57:00,77.2,70.5,30.11,SE,141,3.5,3.5,80,0.00,CLR,OVC,0.00,0.0,WeatherDisplay:10.37,2013-07-05 03:57:00,